This is the latest recevied weather packets stored in our database for station/object W1HS. If no packets are shown the sender has not sent any weather packets the latest 10 day(s).
| Time | Temp. | Humidity | Pressure | Rain* | Wind** | Luminosity | Snow |
|---|---|---|---|---|---|---|---|
| 1777956384 | 12.78° C | 63% | 989.1 hPa | 0 mm | - | 0 W/m² | - |
| 1777955778 | 13.33° C | 63% | 989.1 hPa | 0 mm | - | 0 W/m² | - |
| 1777955179 | 13.33° C | 62% | 989 hPa | 0 mm | - | 0 W/m² | - |
| 1777954578 | 13.33° C | 61% | 988.9 hPa | 0 mm | - | 0 W/m² | - |
| 1777953978 | 13.33° C | 61% | 989 hPa | 0 mm | - | 0 W/m² | - |
| 1777953379 | 13.89° C | 60% | 988.9 hPa | 0 mm | - | 0 W/m² | - |
| 1777952781 | 13.89° C | 59% | 988.8 hPa | 0 mm | - | 0 W/m² | - |
| 1777952179 | 13.89° C | 58% | 988.8 hPa | 0 mm | - | 0 W/m² | - |
| 1777951589 | 13.89° C | 58% | 988.6 hPa | 0 mm | - | 0 W/m² | - |
| 1777950979 | 14.44° C | 56% | 988.6 hPa | 0 mm | - | 0 W/m² | - |
| 1777950381 | 14.44° C | 55% | 988.6 hPa | 0 mm | - | 0 W/m² | - |
| 1777949778 | 15° C | 53% | 988.7 hPa | 0 mm | - | 0 W/m² | - |
| 1777949179 | 15° C | 52% | 988.5 hPa | 0 mm | - | 0 W/m² | - |
| 1777948584 | 15.56° C | 51% | 988.7 hPa | 0 mm | - | 0 W/m² | - |
| 1777947982 | 15.56° C | 48% | 988.6 hPa | 0 mm | - | 0 W/m² | - |
| 1777947383 | 16.11° C | 46% | 988.6 hPa | 0 mm | - | 0 W/m² | - |
| 1777946844 | 16.11° C | 45% | 988.6 hPa | 0 mm | - | 0 W/m² | - |
| 1777946733 | 16.11° C | 45% | 988.6 hPa | 0 mm | - | 0 W/m² | - |
| 1777946484 | 16.11° C | 45% | 988.5 hPa | 0 mm | - | 0 W/m² | - |
| 1777945878 | 16.11° C | 45% | 988.5 hPa | 0 mm | - | 0 W/m² | - |
| 1777945279 | 16.67° C | 45% | 988.5 hPa | 0 mm | - | 0 W/m² | - |
| 1777944678 | 16.67° C | 45% | 988.6 hPa | 0 mm | - | 0 W/m² | - |
| 1777944080 | 16.67° C | 44% | 988.4 hPa | 0 mm | - | 0 W/m² | - |
| 1777943479 | 17.22° C | 43% | 988.4 hPa | 0 mm | - | 0 W/m² | - |
| 1777942879 | 17.22° C | 43% | 988.2 hPa | 0 mm | - | 0 W/m² | - |
* Rain latest hour (hover to see other rain measurements)
** Current wind speed in m/s (hover to see current wind gust speed)